Location: Staunton
(38.1490°N, 79.0720°W)
Time: 14:56:41

ISS - Pass Details

Date: 16 March 2018
Orbit: 403 x 406 km, 51.6° (Epoch: 23 March)

Event Time Altitude Azimuth Distance (km) Brightness Sun altitude
Exits shadow 06:22:58 - 322° (NW) 1,667 -1.0 -13.2°
Reaches altitude 10° 06:23:30 10° 326° (NW) 1,464 -1.3 -13.1°
Maximum altitude 06:26:30 32° 32° (NNE) 712 -2.2 -12.5°
Drops below altitude 10° 06:29:30 10° 98° (E) 1,456 0.3 -11.9°
Sets 06:31:42 0° 109° (ESE) 2,312 1.3 -11.5°
